Hourly Weather Roundup
Issued by NWS Central Illinois

Home | Current Version | Previous Version | Text Only | Print | Product List | Glossary On
Versions: 1 2 3 4 5 6 7 8 9 10 11 12 13 14 15 16 17 18 19 20 21 22 23 24 25 26 27 28 29 30 31 32 33 34 35 36 37 38 39 40 41 42 43 44 45 46 47 48 49 50
000
NZUS43 KILX 010110
HWRILX

AREA WEATHER ROUNDUP
NATIONAL WEATHER SERVICE, LINCOLN IL
800 PM CDT TUE SEP 30 2014


CITY           SKY/WX    TMP DP  RH WIND       PRES   REMARKS
BLOOMINGTON    CLEAR     58  50  75 E9          N/A
CHAMPAIGN      NOT AVBL
DECATUR        CLEAR     61  55  81 NE8       29.94S
FLORA          CLEAR     69  59  71 NE3       29.92R
GALESBURG      CLEAR     59  53  80 E6        29.94S
JACKSONVILLE   DRIZZLE   65  58  78 NE7       29.92S
LACON          CLEAR     56  47  72 E6        29.98R
LAWRENCEVILLE  CLEAR     66  61  84 NE8       29.92S
LITCHFIELD     CLEAR     69  56  64 NE9       29.90S
$$


CITY           SKY/WX    TMP DP  RH WIND       PRES   REMARKS
LINCOLN        CLEAR     64  55  72 NE7       29.92R
MACOMB         CLEAR     61  56  85 E5        29.94F
MATTOON        CLEAR     63  54  72 NE6       29.94R
MT CARMEL AP   CLEAR     72  61  68 NE6       29.91S
OLNEY-NOBLE AP CLEAR     66  61  82 CALM      29.92R
PARIS          PTCLDY    61  55  80 NE5       29.96S
PEORIA         CLEAR     63  49  60 E13       29.96R
PONTIAC        CLEAR     55  48  76 E5        29.99R
RANTOUL        PTCLDY    59  48  67 NE8       29.98S
ROBINSON       CLEAR     64  60  87 NE6       29.93S
SPRINGFIELD    PTCLDY    64  57  78 NE6       29.92S
TAYLORVILLE    PTCLDY    68  55  64 NE7       29.92S
$$

...REGIONAL REPORTS...


CITY           SKY/WX    TMP DP  RH WIND       PRES   REMARKS
CHICAGO O`HARE CLOUDY    53  49  86 N5        30.01S
KANKAKEE       CLOUDY    55  48  76 NE5       30.02R
MOLINE         NOT AVBL
MOUNT VERNON   NOT AVBL
PITTSFIELD     PTCLDY    67  59  74 NE6       29.90F
QUINCY         CLEAR     67  59  75 E8        29.88F
ROCKFORD       MOCLDY    50  43  77 E7        30.04R
$$


CITY           SKY/WX    TMP DP  RH WIND       PRES   REMARKS
BURLINGTON     CLEAR     65  56  72 E7        29.91S
CEDAR RAPIDS   CLEAR     57  52  82 E8        29.92S
DES MOINES     CLOUDY    68  58  70 E12       29.84S
KIRKSVILLE     CLEAR     66  32  28 E7        29.88R
OTTUMWA        PTCLDY    63  56  78 E10       29.88S
ST LOUIS       PTCLDY    76  59  55 E9        29.88S
$$


CITY           SKY/WX    TMP DP  RH WIND       PRES   REMARKS
TERRE HAUTE    PTCLDY    60  54  80 NE3       29.95R
EVANSVILLE     CLEAR     73  60  63 N3        29.91R
INDIANAPOLIS   MOCLDY    63  48  58 N12       29.95R
LAFAYETTE      PTCLDY    54  47  77 NE9       29.98R
MADISON        MOCLDY    46  41  82 NE6       30.02F
MILWAUKEE      DRIZZLE   50  48  93 N7        30.04R
$$




USA.gov is the U.S. government's official web portal to all federal, state and local government web resources and services.